Showing default

NAPA-1, 46320

Orbit data source: Space-Track

NAPA-1, 46320 is a payload satellite owned by RTAF (TH) in SSO that was launched on Thu, 03 Sep 2020 UTC via a VEGA launch vehicle from the French Guiana (FRGUI). Payload-class satellites include a variety of spacecraft equipped with specific instruments for various scientific and technological missions. These include communications satellites like Starlink; space stations such as the ISS; scientific satellites like the Hubble; Earth observation satellites from companies like Planet Labs, Umbra, and HawkEye 360; GPS; miniature CubeSats for education and research; and military/defense satellites.

Loading next visibility...
Identifier
46320, 2020-061BA
Orbit
SSO
Country
Flag of THTH / THAI
Related business
Manufacturer
ISIS BV
Mission
Operational Defense Imaging
Bus & Motor
CUBESAT 6U, Unknown motor
Mass
10 kg wet, 10 kg dry
Launch date (UTC)
2020-09-03 (6 years ago)
Launch vehicle
VEGA
Launch site
French Guiana (FRGUI)
Object type
Payload
Rocket body
Debris
Shape & HBR
Box, 0.1 m
Radar Cross Section
0.080 m², Medium (>0.1 m² and < 1m²)

Expand to show TLE details & history
Last TLE update: 22 hours ago

TLE from 22 hours ago
0 NAPA-1
1 46320U 20061BA  26206.38853924  .00093597  00000-0  66894-3 0  9991
2 46320  97.2435 281.9672 0002520 167.9043 192.2282 15.73473359327736
Epoch: 2026-07-25T09:19Z
TLE epoch observation values (Epoch: 2026-07-25T09:19:29.790Z)
Latitude
-0.00005°
Longitude
-161.00845°
Altitude
353.803 km
Speed
7.696 km/s
True Right ascension
18h 47m 52s
True Declination
0° 00' 00"
Sunlit
Object was in full shadow at epoch
Visualization orbit readout
Latitude
Unknown
Longitude
Unknown
Altitude
Unknown
Speed
Unknown
Apparent Right ascension
Unknown
Apparent Declination
Unknown
Sunlit
N/A
Visualization observer readout
Local Sidereal Time
20:20:29
Azimuth
Unknown
Elevation
Unknown
Doppler factor
Unknown
Orbital elements
Apogee altitude
347.561 km
Perigee altitude
344.172 km
Semi-major axis
6,724.004 km
Eccentricity
0.00025
Inclination
97.2435°
RAAN
281.9672°
Arg. of periapsis
167.9043°
True anomaly
192.22209°
Mean anomaly
192.2282°
Eccentric anomaly
192.22514°
Mean motion
3.93642 °/min
Orbital period
91.45 mins
BSTAR
0.00066894
Loading maneuver chart data...
Computing Atmospheric mass density...

Documentation

Showing up to 5 results
|